AB4KY Weather Reports


time (UTC)temp
C
wind
direction
speed
KPH
gust
KPH
rain 1hr
cm
rain 24hr
cm
rain mn
cm
humidity
%
barometer
mb
20260905224619 32 180 0.0 0.0 0.00 0.69 0.69 68 1009.5
20260905224119 32 195 0.0 0.0 0.00 0.69 0.69 69 1009.3
20260905223616 32 195 0.0 0.0 0.00 0.69 0.69 68 1009.4
20260905223113 32 195 0.0 0.0 0.00 0.69 0.69 66 1009.3
20260905222613 32 195 0.0 0.0 0.00 0.69 0.69 67 1009.0
20260905222108 32 195 0.0 0.0 0.00 0.69 0.69 65 1009.1
20260905221604 32 195 0.0 0.0 0.00 0.69 0.69 65 1009.2
20260905221100 32 195 0.0 0.0 0.00 0.69 0.69 68 1009.5
20260905220555 32 195 0.0 0.0 0.00 0.69 0.69 67 1009.4
20260905220051 32 195 0.0 0.0 0.00 0.69 0.69 67 1009.5
20260905215550 32 180 0.0 3.2 0.00 0.69 0.69 64 1009.4
20260905215047 32 180 4.8 4.8 0.00 0.69 0.69 62 1009.2
20260905214543 32 209 0.0 4.8 0.00 0.69 0.69 63 1009.2
20260905214037 32 203 0.0 3.2 0.00 0.69 0.69 64 1009.4
20260905213532 32 196 0.0 3.2 0.00 0.69 0.69 64 1009.5
20260905213028 32 180 0.0 3.2 0.00 0.69 0.69 62 1009.2
20260905212522 32 190 3.2 4.8 0.00 0.69 0.69 63 1009.3
20260905212022 32 180 1.6 4.8 0.00 0.69 0.69 63 1009.5
20260905211517 32 98 0.0 3.2 0.00 0.69 0.69 65 1009.5
20260905211013 32 195 0.0 3.2 0.00 0.69 0.69 62 1009.3
20260905210509 32 185 0.0 3.2 0.00 0.69 0.69 61 1009.5
20260905210009 32 187 0.0 1.6 0.00 0.69 0.69 64 1009.5
20260905205503 32 29 0.0 0.0 0.00 0.69 0.69 63 1009.5
20260905205002 32 32 3.2 3.2 0.00 0.69 0.69 64 1009.7
20260905204457 32 340 0.0 3.2 0.00 0.69 0.69 61 1009.9
20260905203956 33 261 1.6 4.8 0.00 0.69 0.69 59 1009.7
20260905203452 32 187 6.4 6.4 0.00 0.69 0.69 62 1009.8
20260905202947 32 29 0.0 3.2 0.00 0.69 0.69 63 1009.7
20260905202442 33 15 0.0 1.6 0.00 0.69 0.69 60 1010.0
20260905201938 32 23 0.0 1.6 0.00 0.69 0.69 61 1009.9
20260905201433 33 26 1.6 3.2 0.00 0.69 0.69 61 1010.0
20260905200927 33 262 1.6 4.8 0.00 0.69 0.69 60 1010.1
20260905200423 33 206 1.6 4.8 0.00 0.69 0.69 58 1010.2
20260905195921 33 168 3.2 4.8 0.00 0.69 0.69 56 1010.2
20260905195417 33 270 1.6 3.2 0.00 0.69 0.69 58 1010.4
20260905194912 33 114 0.0 6.4 0.00 0.69 0.69 58 1010.2
20260905194411 33 180 0.0 3.2 0.00 0.69 0.69 58 1010.7
20260905193906 34 192 0.0 4.8 0.00 0.69 0.69 55 1010.4
20260905193401 34 180 0.0 4.8 0.00 0.69 0.69 58 1010.7
20260905192856 33 270 0.0 1.6 0.00 0.69 0.69 57 1010.6
20260905192351 33 353 1.6 4.8 0.00 0.69 0.69 58 1010.8
20260905191851 34 286 0.0 3.2 0.00 0.69 0.69 59 1010.8
20260905191350 33 8 0.0 6.4 0.00 0.69 0.69 58 1010.7
20260905190849 33 346 3.2 3.2 0.00 0.69 0.69 61 1011.1
20260905190343 34 139 3.2 4.8 0.00 0.69 0.69 59 1010.8
20260905185841 34 245 0.0 3.2 0.00 0.69 0.69 57 1010.9
20260905185337 34 254 3.2 4.8 0.00 0.69 0.69 57 1011.1
20260905184830 34 192 1.6 8.0 0.00 0.69 0.69 55 1011.4
20260905184330 34 23 0.0 1.6 0.00 0.69 0.69 57 1011.1
20260905183828 34 180 6.4 6.4 0.00 0.69 0.69 54 1011.4
20260905183324 33 180 0.0 4.8 0.00 0.69 0.69 56 1011.3
20260905182824 33 45 3.2 3.2 0.00 0.69 0.69 57 1011.5
20260905182317 33 160 0.0 4.8 0.00 0.69 0.69 58 1011.7
20260905181813 33 331 0.0 4.8 0.00 0.69 0.69 57 1011.7
20260905181307 33 17 3.2 6.4 0.00 0.69 0.69 59 1011.4
20260905180806 33 191 4.8 6.4 0.00 0.69 0.69 56 1011.6
20260905180301 33 203 4.8 9.7 0.00 0.69 0.69 56 1011.5
20260905175756 32 105 0.0 8.0 0.00 0.69 0.69 58 1011.9
20260905175251 32 82 0.0 6.4 0.00 0.69 0.69 57 1011.8
20260905174746 32 192 0.0 6.4 0.00 0.69 0.69 62 1011.9
20260905174242 32 270 0.0 4.8 0.00 0.69 0.69 58 1012.0
20260905173737 31 75 1.6 8.0 0.00 0.69 0.69 58 1012.2
20260905173233 32 213 3.2 6.4 0.00 0.69 0.69 61 1011.8
20260905172727 32 201 3.2 6.4 0.00 0.69 0.69 60 1011.9
20260905172227 31 180 3.2 4.8 0.00 0.69 0.69 59 1012.2
20260905171723 31 186 4.8 9.7 0.00 0.69 0.69 60 1012.3
20260905171219 31 15 1.6 4.8 0.00 0.69 0.69 59 1012.1
20260905170715 31 192 3.2 8.0 0.00 0.69 0.69 59 1012.4
20260905170210 31 315 3.2 6.4 0.00 0.69 0.69 59 1012.2
20260905165709 31 112 0.0 8.0 0.00 0.69 0.69 59 1012.3
20260905165205 30 120 1.6 8.0 0.00 0.69 0.69 61 1012.5
20260905164700 31 204 0.0 9.7 0.00 0.69 0.69 60 1012.6
20260905164159 30 207 6.4 9.7 0.00 0.69 0.69 60 1012.7
20260905163655 30 222 4.8 9.7 0.00 0.69 0.69 62 1012.9
20260905163152 31 173 0.0 4.8 0.00 0.69 0.69 61 1013.1
20260905162648 31 90 1.6 3.2 0.00 0.69 0.69 65 1013.1
20260905162146 30 204 3.2 9.7 0.00 0.69 0.69 60 1013.1
20260905161641 30 299 3.2 11.3 0.00 0.69 0.69 61 1012.9
20260905161139 30 221 3.2 4.8 0.00 0.69 0.69 65 1012.9
20260905160639 30 172 3.2 12.9 0.00 0.69 0.69 64 1012.7
20260905160133 30 187 1.6 6.4 0.00 0.69 0.69 63 1012.8
20260905155633 29 221 3.2 6.4 0.00 0.69 0.69 64 1012.9
20260905155131 30 346 0.0 4.8 0.00 0.69 0.69 65 1012.8
20260905154626 28 101 3.2 4.8 0.00 0.69 0.69 75 1012.8
20260905154122 30 197 3.2 3.2 0.00 0.69 0.69 68 1012.6
20260905153617 29 150 0.0 9.7 0.00 0.69 0.69 68 1012.6
20260905153112 29 229 4.8 8.0 0.00 0.69 0.69 66 1012.6
20260905152608 30 194 4.8 4.8 0.00 0.69 0.69 66 1012.8
20260905152102 29 60 0.0 3.2 0.00 0.69 0.69 69 1012.8
20260905151557 28 200 4.8 6.4 0.00 0.69 0.69 68 1012.5
20260905151052 28 270 0.0 8.0 0.00 0.69 0.69 73 1012.9
20260905150548 28 192 3.2 3.2 0.00 0.69 0.69 74 1012.9
20260905150046 27 198 3.2 6.4 0.00 0.69 0.69 72 1012.7
20260905145539 27 262 1.6 8.0 0.00 0.69 0.69 73 1013.0
20260905145038 27 239 3.2 11.3 0.00 0.69 0.69 73 1013.1
20260905144533 27 210 4.8 6.4 0.00 0.69 0.69 71 1013.2
20260905144032 27 200 1.6 8.0 0.00 0.69 0.69 74 1013.1
20260905143532 27 8 0.0 4.8 0.00 0.69 0.69 76 1013.2
20260905143027 26 198 8.0 8.0 0.00 0.69 0.69 78 1013.0
20260905142526 26 126 1.6 9.7 0.00 0.69 0.69 79 1012.9
20260905142021 26 168 3.2 4.8 0.00 0.69 0.69 77 1013.3
20260905141515 26 216 4.8 9.7 0.00 0.69 0.69 76 1013.2
20260905141012 26 157 0.0 4.8 0.00 0.69 0.69 78 1013.6
20260905140507 26 192 1.6 8.0 0.00 0.69 0.69 79 1013.5
20260905140005 26 195 0.0 6.4 0.00 0.69 0.69 79 1013.6
20260905135501 25 212 0.0 3.2 0.00 0.69 0.69 81 1013.5
20260905134956 25 120 0.0 6.4 0.00 0.69 0.69 84 1013.7
20260905134455 25 190 3.2 6.4 0.00 0.69 0.69 81 1013.6
20260905133954 25 198 0.0 3.2 0.00 0.69 0.69 83 1013.8
20260905133450 24 173 0.0 4.8 0.00 0.69 0.69 86 1013.8
20260905132944 23 120 0.0 4.8 0.00 0.69 0.69 92 1013.7
20260905132439 22 111 0.0 3.2 0.00 0.69 0.69 96 1013.8
20260905131933 21 79 3.2 3.2 0.00 0.69 0.69 98 1013.8
20260905131430 21 33 3.2 3.2 0.00 0.69 0.69 99 1013.6
20260905130924 21 8 3.2 4.8 0.00 0.69 0.69 99 1013.6
20260905130423 21 52 3.2 8.0 0.00 0.69 0.69 99 1013.7
20260905125918 21 52 3.2 4.8 0.00 0.69 0.69 99 1013.8
20260905125413 21 237 0.0 4.8 0.00 0.69 0.69 99 1013.9
20260905124908 21 109 0.0 4.8 0.00 0.69 0.69 99 1014.3
20260905124405 21 98 0.0 4.8 0.00 0.69 0.69 99 1014.0
20260905123904 21 66 1.6 8.0 0.00 0.69 0.69 99 1013.8
20260905123401 21 75 0.0 6.4 0.00 0.69 0.69 99 1013.9
20260905122856 21 41 3.2 6.4 0.00 0.69 0.69 99 1014.0
20260905122355 21 75 0.0 4.8 0.00 0.69 0.69 99 1014.1
20260905121851 21 74 0.0 4.8 0.00 0.69 0.69 99 1014.4
20260905121347 21 74 1.6 4.8 0.00 0.69 0.69 99 1014.2
20260905120846 21 145 1.6 4.8 0.00 0.69 0.69 99 1014.3
20260905120340 21 74 3.2 3.2 0.00 0.69 0.69 99 1014.1
20260905115836 22 90 0.0 6.4 0.00 0.69 0.69 99 1014.1
20260905115335 22 126 1.6 11.3 0.00 0.69 0.69 99 1014.0
20260905114834 22 157 0.0 3.2 0.00 0.69 0.69 99 1012.4
20260905114334 22 164 3.2 3.2 0.00 0.69 0.69 99 1012.2
20260905113828 22 106 0.0 1.6 0.00 0.69 0.69 99 1012.4
20260905113324 22 135 3.2 3.2 0.00 0.69 0.69 99 1012.2
20260905112819 22 154 1.6 3.2 0.00 0.69 0.69 99 1012.3
20260905112313 22 120 1.6 3.2 0.00 0.69 0.69 99 1012.3
20260905111808 21 106 0.0 1.6 0.00 0.69 0.69 99 1012.2
20260905111303 21 103 0.0 3.2 0.05 0.69 0.69 99 1012.1
20260905110802 21 23 0.0 4.8 0.61 0.69 0.69 99 1012.0
20260905110256 21 214 8.0 12.9 0.89 0.69 0.69 99 1012.2
20260905105752 22 170 3.2 8.0 0.18 0.56 0.56 99 1012.5
20260905105251 22 183 4.8 4.8 0.05 0.53 0.53 99 1012.4
20260905104745 22 166 1.6 4.8 0.13 0.53 0.53 99 1012.1
20260905104241 21 331 0.0 4.8 0.79 0.51 0.51 99 1011.9
20260905103736 22 45 4.8 4.8 3.07 0.51 0.51 96 1011.4
20260905103232 24 194 8.0 8.0 1.32 0.23 0.23 97 1013.1
20260905102727 24 257 3.2 3.2 0.00 0.00 0.00 94 1012.5
20260905102224 24 28 3.2 4.8 0.00 0.00 0.00 95 1012.1
20260905101723 24 29 0.0 4.8 0.00 0.00 0.00 94 1012.3
20260905101221 24 4 3.2 4.8 0.00 0.00 0.00 93 1011.9
20260905100718 24 15 0.0 1.6 0.00 0.00 0.00 96 1012.0
20260905100213 24 66 0.0 1.6 0.00 0.00 0.00 97 1011.7
20260905095712 24 162 0.0 3.2 0.00 0.00 0.00 97 1011.9
20260905095207 24 176 0.0 4.8 0.00 0.00 0.00 97 1012.1
20260905094706 24 188 3.2 6.4 0.00 0.00 0.00 97 1012.0
20260905094201 23 180 6.4 6.4 0.00 0.00 0.00 98 1012.1
20260905093655 24 23 3.2 3.2 0.00 0.00 0.00 98 1011.5
20260905093152 24 180 0.0 4.8 0.00 0.00 0.00 98 1011.1
20260905092646 23 74 0.0 3.2 0.00 0.00 0.00 99 1011.1
20260905092142 23 59 3.2 4.8 0.00 0.00 0.00 99 1011.1
20260905091642 23 13 8.0 9.7 0.00 0.00 0.00 99 1011.4
20260905091142 23 99 0.0 0.0 0.00 0.00 0.00 99 1010.9
20260905090636 23 99 0.0 1.6 0.00 0.00 0.00 99 1011.1
20260905090132 23 172 0.0 1.6 0.00 0.00 0.00 99 1011.3
20260905085631 23 90 0.0 0.0 0.00 0.00 0.00 99 1011.1
20260905085126 23 90 0.0 1.6 0.00 0.00 0.00 99 1011.3
20260905084626 23 99 0.0 4.8 0.00 0.00 0.00 99 1011.3
20260905084120 23 180 0.0 1.6 0.00 0.00 0.00 99 1011.3
20260905083615 23 180 0.0 1.6 0.00 0.00 0.00 99 1011.5
20260905083112 23 286 0.0 3.2 0.00 0.00 0.00 99 1011.4
20260905082607 23 285 4.8 4.8 0.00 0.00 0.00 99 1011.5
20260905082103 23 99 0.0 1.6 0.00 0.00 0.00 99 1011.1
20260905081602 23 99 0.0 0.0 0.00 0.00 0.00 99 1011.1
20260905081056 23 90 0.0 0.0 0.00 0.00 0.00 99 1010.8
20260905080551 23 90 0.0 0.0 0.00 0.00 0.00 99 1010.9
20260905080045 23 120 0.0 1.6 0.00 0.00 0.00 99 1010.7
20260905075538 23 106 0.0 1.6 0.00 0.00 0.00 99 1010.6
20260905075033 23 90 0.0 1.6 0.00 0.00 0.00 99 1010.8
20260905074527 23 180 0.0 1.6 0.00 0.00 0.00 99 1010.9
20260905074023 23 180 0.0 0.0 0.00 0.00 0.00 99 1011.0
20260905073518 23 180 0.0 0.0 0.00 0.00 0.00 99 1010.9
20260905073014 23 172 0.0 0.0 0.00 0.00 0.00 99 1011.3
20260905072513 23 90 0.0 0.0 0.00 0.00 0.00 99 1011.3
20260905072008 23 99 0.0 0.0 0.00 0.00 0.00 99 1011.3
20260905071505 23 99 0.0 0.0 0.00 0.00 0.00 99 1011.4
20260905071000 23 99 0.0 0.0 0.00 0.00 0.00 99 1011.5
20260905070456 23 99 0.0 0.0 0.00 0.00 0.00 99 1011.5
20260905065955 23 90 0.0 1.6 0.00 0.00 0.00 99 1011.5
20260905065454 23 99 0.0 0.0 0.00 0.00 0.00 98 1011.5
20260905064949 23 90 0.0 1.6 0.00 0.00 0.00 98 1011.5
20260905064444 23 98 1.6 1.6 0.00 0.00 0.00 98 1011.4
20260905063939 23 90 0.0 1.6 0.00 0.00 0.00 98 1011.5
20260905063433 23 90 0.0 1.6 0.00 0.00 0.00 97 1011.5
20260905062930 23 81 0.0 1.6 0.00 0.00 0.00 97 1011.9
20260905062423 24 127 0.0 3.2 0.00 0.00 0.00 97 1011.7
20260905061919 23 151 0.0 1.6 0.00 0.00 0.00 97 1011.7
20260905061413 23 180 1.6 1.6 0.00 0.00 0.00 97 1011.8
20260905060912 23 180 0.0 1.6 0.00 0.00 0.00 97 1012.0
20260905060409 23 106 0.0 1.6 0.00 0.00 0.00 97 1012.0
20260905055908 23 114 0.0 0.0 0.00 0.00 0.00 97 1012.0
20260905055404 23 114 0.0 1.6 0.00 0.00 0.00 97 1012.0
20260905054902 23 114 0.0 0.0 0.00 0.00 0.00 97 1012.2
20260905054359 23 111 0.0 1.6 0.00 0.00 0.00 97 1012.3
20260905053858 23 99 0.0 0.0 0.00 0.00 0.00 98 1012.4
20260905053353 23 99 0.0 0.0 0.00 0.00 0.00 97 1012.4
20260905052849 23 81 0.0 1.6 0.00 0.00 0.00 97 1012.4
20260905052348 23 90 0.0 1.6 0.00 0.00 0.00 97 1012.1
20260905051848 23 105 0.0 1.6 0.00 0.00 0.00 97 1012.2
20260905051344 23 114 0.0 3.2 0.00 0.00 0.00 97 1012.3
20260905050841 23 120 0.0 0.0 0.00 0.00 0.00 97 1012.2
20260905050337 24 109 0.0 1.6 0.00 0.00 0.00 97 1012.2
20260905045831 24 81 0.0 0.0 0.00 0.00 0.00 96 1012.2
20260905045326 24 98 0.0 0.0 0.00 0.00 0.00 96 1012.3
20260905044822 24 98 0.0 0.0 0.00 0.00 0.00 96 1012.3
20260905044317 24 98 0.0 0.0 0.00 0.00 0.00 96 1012.3
20260905043815 25 90 0.0 3.2 0.00 0.00 0.00 96 1012.2
20260905043311 24 106 0.0 1.6 0.00 0.00 0.00 95 1012.6
20260905042810 24 117 0.0 1.6 0.00 0.00 0.00 95 1012.5
20260905042307 25 81 0.0 0.0 0.00 0.00 0.00 95 1012.4
20260905041800 25 81 0.0 0.0 0.00 0.00 0.00 95 1012.4
20260905041256 25 99 0.0 1.6 0.00 0.00 0.00 95 1012.4
20260905040751 25 105 0.0 0.0 0.00 0.00 0.00 95 1012.6
20260905040249 25 105 0.0 3.2 0.00 0.00 0.00 94 1012.4
20260905035744 25 120 0.0 1.6 0.00 0.00 0.00 94 1012.5
20260905035240 25 165 0.0 3.2 0.00 0.00 0.00 95 1012.5
20260905034737 25 114 0.0 0.0 0.00 0.00 0.00 94 1012.5
20260905034231 25 114 0.0 0.0 0.00 0.00 0.00 94 1012.6
20260905033730 25 114 0.0 1.6 0.00 0.00 0.00 94 1012.5
20260905033225 25 168 0.0 0.0 0.00 0.00 0.00 94 1012.5
20260905032725 25 172 0.0 0.0 0.00 0.00 0.00 94 1012.6
20260905032220 25 81 0.0 1.6 0.00 0.00 0.00 95 1012.6
20260905031715 25 114 0.0 3.2 0.00 0.00 0.00 95 1012.5
20260905031211 25 117 0.0 3.2 0.00 0.00 0.00 95 1012.7
20260905030706 25 106 0.0 1.6 0.00 0.00 0.00 95 1012.9
20260905030201 25 114 0.0 0.0 0.00 0.00 0.00 95 1012.8
20260905025655 25 90 0.0 0.0 0.00 0.00 0.00 95 1012.6
20260905025151 25 60 1.6 1.6 0.00 0.00 0.00 96 1012.9
20260905024647 25 106 0.0 0.0 0.00 0.00 0.00 96 1012.7
20260905024142 25 114 0.0 1.6 0.00 0.00 0.00 96 1012.6
20260905023638 25 90 0.0 1.6 0.00 0.00 0.00 95 1012.7
20260905023137 26 111 0.0 1.6 0.00 0.00 0.00 95 1012.5
20260905022636 26 99 0.0 1.6 0.00 0.00 0.00 95 1012.4
20260905022131 26 114 0.0 0.0 0.00 0.00 0.00 95 1012.6
20260905021626 26 106 0.0 1.6 0.00 0.00 0.00 94 1012.5
20260905021122 26 188 0.0 0.0 0.00 0.00 0.00 93 1012.5
20260905020621 26 188 0.0 0.0 0.00 0.00 0.00 92 1012.4
20260905020117 26 188 0.0 0.0 0.00 0.00 0.00 92 1012.5
20260905015615 26 188 0.0 1.6 0.00 0.00 0.00 91 1012.4
20260905015110 26 180 0.0 1.6 0.00 0.00 0.00 92 1012.2
20260905014603 26 172 0.0 0.0 0.00 0.00 0.00 91 1012.3
20260905014100 26 172 0.0 0.0 0.00 0.00 0.00 91 1012.2
20260905013555 26 172 0.0 0.0 0.00 0.00 0.00 92 1012.2
20260905013052 26 172 0.0 0.0 0.00 0.00 0.00 91 1012.1
20260905012550 26 172 0.0 0.0 0.00 0.00 0.00 90 1012.1
20260905012048 26 172 0.0 0.0 0.00 0.00 0.00 89 1012.0
20260905011543 27 172 0.0 0.0 0.00 0.00 0.00 87 1012.2
20260905011038 27 172 0.0 0.0 0.00 0.00 0.00 87 1012.0
20260905010533 27 172 0.0 0.0 0.00 0.00 0.00 88 1011.8
20260905010030 27 172 0.0 0.0 0.00 0.00 0.00 86 1011.8
20260905005525 27 172 0.0 0.0 0.00 0.00 0.00 84 1011.6
20260905005021 27 180 0.0 0.0 0.00 0.00 0.00 85 1011.8
20260905004521 28 180 0.0 0.0 0.00 0.00 0.00 84 1011.5
20260905004015 28 180 0.0 0.0 0.00 0.00 0.00 83 1011.4
20260905003512 28 90 0.0 0.0 0.00 0.00 0.00 84 1011.4
20260905003007 28 114 0.0 0.0 0.00 0.00 0.00 83 1011.6
20260905002502 28 180 0.0 0.0 0.00 0.00 0.00 83 1011.4
20260905001956 28 180 0.0 0.0 0.00 0.00 0.00 82 1011.3
20260905001450 29 180 0.0 0.0 0.00 0.00 0.00 81 1011.3
20260905000944 29 172 0.0 1.6 0.00 0.00 0.00 80 1011.3
20260905000435 30 180 0.0 1.6 0.00 0.00 0.00 80 1011.3
20260904235930 30 180 0.0 0.0 0.00 0.00 0.00 80 1011.4
20260904235426 30 180 0.0 0.0 0.00 0.00 0.00 79 1011.5
20260904234925 30 180 0.0 0.0 0.00 0.00 0.00 78 1011.1
20260904234420 30 180 0.0 0.0 0.00 0.00 0.00 78 1011.3
20260904233916 30 180 0.0 0.0 0.00 0.00 0.00 75 1011.0
20260904233411 31 180 0.0 1.6 0.00 0.00 0.00 78 1011.3
20260904232908 31 180 0.0 0.0 0.00 0.00 0.00 78 1011.4
20260904232404 31 180 0.0 0.0 0.00 0.00 0.00 76 1011.5
20260904231900 31 180 0.0 0.0 0.00 0.00 0.00 75 1011.4
20260904231355 32 180 0.0 1.6 0.00 0.00 0.00 73 1011.3
20260904230850 32 180 0.0 1.6 0.00 0.00 0.00 71 1011.4
20260904230349 32 187 1.6 1.6 0.00 0.00 0.00 71 1011.5
20260904225844 32 174 1.6 1.6 0.00 0.00 0.00 70 1011.5
20260904225342 32 180 0.0 3.2 0.00 0.00 0.00 68 1011.5
20260904224841 32 180 0.0 0.0 0.00 0.00 0.00 68 1011.7